Regional Weather Roundup
Issued by NWS

Home | Current Version | Previous Version | Text Only | Print | Product List | Glossary On
Versions: 1 2 3 4 5 6 7 8 9 10 11 12 13 14 15 16 17 18 19 20 21 22 23 24 25 26 27 28 29 30 31 32 33 34 35 36 37 38 39 40 41 42 43 44 45 46 47 48 49 50
000
ASUS43 KLOT 020300
RWRIL

ILLINOIS REGIONAL WEATHER ROUNDUP
NATIONAL WEATHER SERVICE CHICAGO/ROMEOVILLE IL
1000 PM CDT MON JUN 01 2015

NOTE: "FAIR" INDICATES FEW OR NO CLOUDS BELOW 12,000 FEET WITH NO
SIGNIFICANT WEATHER AND/OR OBSTRUCTIONS TO VISIBILITY.

* THESE STATIONS ARE NOT UNDER NWS QUALITY CONTROL. THEY ALSO MAY NOT
  REPORT WEATHER SUCH AS PRECIPITATION OR FOG.

ILZ001-002-007-009-015-016-024-020400-
NORTHWEST ILLINOIS

CITY           SKY/WX    TMP DP  RH WIND       PRES   REMARKS
MOLINE         CLOUDY    63  45  51 E10       30.15R
STERLING*      CLEAR     55  45  67 E10       30.19R
$$

ILZ003-004-008-010-011-017-018-020400-
NORTH CENTRAL ILLINOIS

CITY           SKY/WX    TMP DP  RH WIND       PRES   REMARKS
ROCKFORD       PTCLDY    53  40  61 E7        30.23R
$$

ILZ005-006-012>014-019>023-020400-
NORTHEAST ILLINOIS

CITY           SKY/WX    TMP DP  RH WIND       PRES   REMARKS
CHICAGO-OHARE  PTCLDY    49  36  61 N6        30.22R
CHICAGO-MIDWAY CLEAR     52  37  56 NE7       30.21S
AURORA         CLEAR     50  37  61 E7        30.22R
WAUKEGAN       CLEAR     47  36  65 N5        30.21S
DUPAGE AIRPORT CLEAR     49  34  56 NE5       30.21R
WHEELING       CLEAR     48  36  63 N5        30.24R
NORTHERLY ISL    N/A     47  38  71 N7          N/A
$$

LMZ740>746-020400-
SOUTHERN LAKE MICHIGAN

STATION/POSITION SKY/WX   TEMP    WIND        PRES    VSBY  WAVE
                          AIR SEA DIR/SP/G                  HT/PER
                          (F)     (DEG/KT/KT) (MB)    (MI)  (FT/S)
SOUTHERN BUOY              42 38   10/  8/ 10 1023.6R         1/ 4
HARRISON CRIB              48     360/ 11/ 12   N/A
BURNHAM HARBOR             48     340/  8/ 11   N/A
CALUMET HARBOR             49     360/  5/  8   N/A
BURNS HARBOR                       30/  7/  8 1023.4S
MICHIGAN CITY              50     350/  6/  7   N/A
MICHIGAN CITY 6N           48 54   20/  6/  8   N/A           3/ 4
ST. JOSEPH                 53 55   40/ 12/ 14   N/A           3/ 4
$$

ILZ025>027-034>036-040-047-049-050-058-095>099-020400-
WEST-CENTRAL ILLINOIS

CITY           SKY/WX    TMP DP  RH WIND       PRES   REMARKS
QUINCY         PTCLDY    61  54  77 CALM      30.15S
$$

ILZ028>032-037-038-041>044-048-051>054-059>061-020400-
CENTRAL ILLINOIS

CITY           SKY/WX    TMP DP  RH WIND       PRES   REMARKS
DECATUR        MOCLDY    59  55  87 NE7       30.16R
PEORIA         CLEAR     58  52  80 CALM      30.17S
SPRINGFIELD    CLEAR     59  53  80 NE6       30.16S
TAYLORVILLE    NOT AVBL
$$

ILZ033-039-045-046-055>057-062-063-020400-
EAST-CENTRAL ILLINOIS

CITY           SKY/WX    TMP DP  RH WIND       PRES   REMARKS
CHAMPAIGN      PTCLDY    59  55  87 NE6       30.16R
MATTOON        CLEAR     58  53  84 E6        30.15R
$$

ILZ079-100>102-020400-
SOUTHWEST ILLINOIS

CITY           SKY/WX    TMP DP  RH WIND       PRES   REMARKS
ALTON          CLOUDY    63  61  94 NE6       30.14S
BELLEVILLE     CLOUDY    62  60  92 CALM      30.13R
CAHOKIA*       CLOUDY    64  56  75 CALM      30.14R
$$

ILZ064>066-069>071-074>076-080>082-084>086-088>090-092>094-020400-
SOUTH-CENTRAL ILLINOIS

CITY           SKY/WX    TMP DP  RH WIND       PRES   REMARKS
CARBONDALE     CLOUDY    61  55  81 NE5       30.13R
MT. VERNON     CLOUDY    59  54  82 CALM      30.15R
$$

ILZ067-068-072-073-078-083-087-091-020400-
SOUTHEAST ILLINOIS

CITY           SKY/WX    TMP DP  RH WIND       PRES   REMARKS
LAWRENCEVILLE  MOCLDY    59  54  83 NE6       30.14R
$$

ABBREVIATIONS USED IN REMARKS
   TC - TEMPERATURE IN CELSIUS
  WCI - WIND CHILL INDEX
   HX - HEAT INDEX
  VSB - VISIBILITY
$$




USA.gov is the U.S. government's official web portal to all federal, state and local government web resources and services.